Bangor, ME

6:45 AM EST on November 13, 2019 (GMT -0500)
Bangor International

Weather History for KBGR - October, 2019

Change the Weather History Date:

Wednesday, October 23, 2019

  Actual Average Record
Temperature  
Mean Temperature 50 °F 45 °F  
Max Temperature 59 °F 55 °F 78 °F (1947)
Min Temperature 40 °F 35 °F 20 °F (1940)
Degree Days  
Heating Degree Days 16 20  
Month to date heating degree days 347 379  
Since 1 July heating degree days 561 651  
Cooling Degree Days 0 0  
Month to date cooling degree days 0 0  
Year to date cooling degree days 336 317  
Moisture  
Dew Point 50 °F    
Average Humidity 93    
Maximum Humidity 100    
Minimum Humidity 77    
Precipitation  
Precipitation 1.73 in 0.14 in 1.94 in (2014)
Month to date precipitation 4.47 3.12  
Year to date precipitation 43.49 33.20  
Snow  
Snow 0.00 in 0.00 in T in (2018)
Month to date snowfall 0.0 0.1  
Since 1 July snowfall 0.0 0.1  
Since 1 September snowfall 0.0 0.1  
Snow Depth 0.00 in    
Sea Level Pressure  
Sea Level Pressure 29.82 in    
Wind  
Wind Speed 8 mph ()    
Max Wind Speed 17 mph    
Max Gust Speed 25 mph    
Visibility 4.6 miles    
Events Rain , Thunderstorm    
T = Trace of Precipitation, MM = Missing Value Source: Averaged Metar Reports

Daily Weather History Graph

Daily Weather History Graph

Search for Another Location

Airport or City:

Astronomy

Oct. 23, 2019 Rise Set
Actual Time 7:00 AM EDT 5:37 PM EDT
Civil Twilight 6:31 AM EDT 6:07 PM EDT
Nautical Twilight 5:56 AM EDT 6:41 PM EDT
Astronomical Twilight 5:23 AM EDT 7:15 PM EDT
Moon 12:56 AM EDT (10/23) 3:42 PM EDT (10/23)
Length of Visible Light 11h 36m
Length of Day
10h 36m
Waning Crescent, 27% of the Moon is Illuminated
Oct 23
Waning Crescent
Oct 27
New
Nov 4
First Quarter
Nov 12
Full
Nov 19
Last Quarter

Hourly Weather History & Observations

Time (EDT) Temp. Windchill Dew Point Humidity Pressure Visibility Wind Dir Wind Speed Gust Speed Precip Events Conditions
12:09 AM 51.1 °F - 44.1 °F 77% 30.06 in 10.0 mi ESE 10.4 mph - N/A   Overcast
12:53 AM 51.1 °F - 45.0 °F 80% 30.05 in 10.0 mi ESE 12.7 mph - N/A   Overcast
1:53 AM 51.1 °F - 45.0 °F 80% 30.01 in 10.0 mi ENE 6.9 mph - N/A   Overcast
2:53 AM 51.1 °F - 45.0 °F 80% 29.96 in 10.0 mi East 12.7 mph - N/A   Overcast
3:53 AM 48.9 °F - 46.9 °F 93% 29.91 in 4.0 mi East 12.7 mph - 0.03 in Rain Rain
4:53 AM 48.9 °F - 48.0 °F 97% 29.89 in 3.0 mi East 6.9 mph - 0.06 in Rain Light Rain
5:53 AM 50.0 °F - 48.0 °F 93% 29.88 in 2.0 mi East 5.8 mph - 0.10 in Rain Heavy Rain
5:58 AM 50.0 °F - 48.9 °F 96% 29.88 in 2.0 mi East 8.1 mph - 0.03 in Rain Heavy Rain
6:09 AM 50.0 °F - 48.9 °F 96% 29.89 in 4.0 mi Calm Calm - 0.04 in Rain Light Rain
6:34 AM 50.0 °F - 48.9 °F 96% 29.87 in 2.5 mi North 5.8 mph - 0.08 in Rain Light Rain
6:53 AM 50.0 °F - 48.9 °F 96% 29.87 in 1.5 mi North 5.8 mph - 0.18 in Rain Heavy Rain
7:17 AM 50.0 °F - 48.9 °F 96% 29.85 in 2.5 mi NNE 9.2 mph - 0.06 in Rain Rain
7:49 AM 50.0 °F - 48.2 °F 94% 29.85 in 3.0 mi North 5.8 mph - 0.14 in Rain Rain
7:53 AM 50.0 °F - 48.9 °F 96% 29.84 in 2.0 mi North 6.9 mph - 0.16 in Rain Rain
8:22 AM 50.0 °F - 50.0 °F 100% 29.82 in 1.8 mi NE 11.5 mph - 0.07 in Rain Rain
8:37 AM 51.1 °F - 50.0 °F 96% 29.82 in 1.8 mi NNE 5.8 mph - 0.08 in Rain Light Rain
8:53 AM 51.1 °F - 51.1 °F 100% 29.81 in 2.0 mi NE 5.8 mph - 0.10 in Rain Light Rain
9:45 AM 55.0 °F - 53.1 °F 93% 29.77 in 2.0 mi East 6.9 mph - 0.08 in Rain , Thunderstorm Light Thunderstorms and Rain
9:50 AM 55.4 °F - 53.6 °F 94% 29.78 in 1.8 mi SE 10.4 mph - 0.15 in Rain , Thunderstorm Heavy Thunderstorms and Rain
9:53 AM 55.9 °F - 54.0 °F 93% 29.78 in 1.8 mi SSE 5.8 mph - 0.23 in Rain , Thunderstorm Heavy Thunderstorms and Rain
9:55 AM 55.9 °F - 54.0 °F 93% 29.79 in 1.0 mi SSE 8.1 mph - 0.06 in Rain , Thunderstorm Heavy Thunderstorms and Rain
10:02 AM 55.9 °F - 55.0 °F 97% 29.79 in 1.0 mi SE 9.2 mph - 0.23 in Rain Heavy Rain
10:16 AM 55.9 °F - 55.0 °F 97% 29.76 in 1.5 mi ESE 9.2 mph - 0.31 in Rain Heavy Rain
10:53 AM 55.9 °F - 55.0 °F 97% 29.73 in 2.0 mi East 5.8 mph - 0.43 in Rain Heavy Rain
11:53 AM 57.9 °F - 55.9 °F 93% 29.71 in 2.0 mi SSE 9.2 mph 16.1 mph 0.24 in Rain Heavy Rain
12:49 PM 59.0 °F - 57.2 °F 94% 29.66 in 5.0 mi ESE 8.1 mph - 0.11 in Rain Light Rain
12:53 PM 59.0 °F - 57.0 °F 93% 29.65 in 4.0 mi ESE 10.4 mph - 0.11 in Rain Light Rain
1:53 PM 59.0 °F - 57.9 °F 96% 29.63 in 1.5 mi South 3.5 mph - 0.01 in Rain Light Rain
2:21 PM 55.0 °F - 53.1 °F 93% 29.64 in 3.0 mi WNW 12.7 mph - 0.05 in Rain Light Rain
2:41 PM 53.1 °F - 52.0 °F 96% 29.65 in 2.0 mi WNW 11.5 mph - 0.06 in Rain Light Rain
2:53 PM 52.0 °F - 50.0 °F 93% 29.67 in 2.5 mi WNW 15.0 mph 21.9 mph 0.06 in Rain Light Rain
3:25 PM 52.0 °F - 50.0 °F 93% 29.69 in 1.8 mi WNW 9.2 mph - 0.01 in Rain Light Rain
3:51 PM 51.8 °F - 51.8 °F 100% 29.71 in 4.0 mi NW 12.7 mph 21.9 mph 0.02 in   Light Drizzle
3:53 PM 52.0 °F - 51.1 °F 97% 29.71 in 5.0 mi WNW 11.5 mph - 0.02 in   Light Drizzle
4:53 PM 52.0 °F - 48.9 °F 89% 29.75 in 10.0 mi WNW 11.5 mph 17.3 mph 0.00 in   Scattered Clouds
5:53 PM 52.0 °F - 48.0 °F 86% 29.79 in 10.0 mi WNW 9.2 mph - N/A   Mostly Cloudy
6:53 PM 51.1 °F - 46.9 °F 86% 29.83 in 10.0 mi West 4.6 mph - N/A   Scattered Clouds
7:53 PM 48.0 °F - 46.9 °F 96% 29.87 in 10.0 mi WSW 4.6 mph - N/A   Partly Cloudy
8:53 PM 44.1 °F 41.5 °F 43.0 °F 96% 29.90 in 10.0 mi West 4.6 mph - N/A   Clear
9:53 PM 46.0 °F 43.9 °F 44.1 °F 93% 29.93 in 10.0 mi Variable 4.6 mph - N/A   Clear
10:53 PM 46.9 °F - 43.0 °F 86% 29.96 in 10.0 mi WSW 4.6 mph - N/A   Clear
11:53 PM 43.0 °F - 42.1 °F 97% 29.97 in 10.0 mi Calm Calm - N/A   Clear